[[{"header":{"parameterUnit":"m.s-1","parameterCategory":1,"la1":30.2992,"la2":30.254,"lo1":-89.0895,"lo2":-89.0443,"dy":0.0025,"dx":0.0025,"nx":19,"ny":19,"refTime":"2026-03-13T03:00:00:Z","depth":0,"parameterNumber":2,"parameterNumberName":"U-component_of_WINDS"},"data":[0,0,0,-3.1302,-3.1306,-3.1486,-3.1486,-3.174,-3.1743,0,0,0,0,0,0,0,0,0,0,0,-3.1263,-3.1265,-3.1301,-3.1306,-3.1486,-3.1486,-3.174,-3.1743,0,0,0,0,0,0,0,0,0,0,0,-3.1262,-3.1265,-3.1267,-3.1307,-3.1485,-3.1486,-3.1739,-3.1595,0,0,0,0,0,0,0,0,0,0,-3.1417,-3.1395,-3.1264,-3.1267,-3.1308,-3.1485,-3.1486,-3.1588,-3.1604,-3.1669,0,-3.1731,0,-3.1741,-3.1762,-3.1762,0,0,0,-3.1296,-3.1382,-3.1417,-3.1268,-3.131,-3.1485,-3.1402,-3.1597,-3.1615,-3.1691,-3.1734,-3.1743,-3.1745,-3.1763,-3.1765,-3.2174,-3.2177,0,0,-3.1286,-3.1303,-3.1404,-3.1429,-3.1403,-3.1396,-3.1407,-3.1608,-3.1656,-3.1735,-3.1749,-3.175,-3.1765,-3.1767,-3.2172,-3.2175,0,0,0,-3.1264,-3.1297,-3.1326,-3.142,-3.145,-3.1401,-3.1414,-3.1647,-3.1655,-3.1751,-3.1753,-3.1767,-3.177,-3.2169,-3.2173,-3.2309,0,0,0,-3.1258,-3.1284,-3.1323,-3.1336,-3.1447,-3.1551,-3.145,-3.1641,-3.1663,-3.1751,-3.1767,-3.1773,-3.2167,-3.2171,-3.2299,-3.237,0,0,0,-3.1246,-3.1283,-3.1314,-3.1336,-3.1414,-3.1547,-3.1566,-3.1646,-3.1665,-3.1763,-3.1774,-3.2165,-3.217,-3.2291,-3.2356,-3.2483,0,0,0,-3.1239,-3.1433,-3.1316,-3.1533,-3.1413,-3.163,-3.1565,-3.1726,-3.1826,-3.1768,-3.2167,-3.2173,-3.2288,-3.2348,-3.2474,-3.2592,-3.2643,0,0,-3.1494,-3.1464,-3.159,-3.1491,-3.1733,-3.1601,-3.1863,-3.1939,-3.1932,-3.2094,-3.2104,-3.2302,-3.2355,-3.2481,-3.2923,-3.2964,0,0,0,-3.1677,-3.1768,-3.1828,-3.1924,-3.1985,-3.2043,-3.2076,-3.2104,-3.224,-3.2019,-3.2382,-3.2413,-3.2486,-3.2541,-3.2576,-3.2637,-3.2199,-3.2198,-3.2198,-3.2063,-3.2043,-3.225,-3.2252,-3.2345,-3.2376,-3.245,-3.2493,-3.2447,-3.2533,-3.2581,-3.2851,-3.2918,-3.2943,-3.3007,-3.2642,-3.2642,-3.2643,-3.2643,-3.2433,-3.2559,-3.2491,-3.2667,-3.2645,-3.2793,-3.2831,-3.2792,-3.2927,-3.2814,-3.2877,-3.2755,-3.2988,-3.3043,-3.2653,-3.2652,-3.265,-3.2649,-3.2649,-3.2684,-3.274,-3.277,-3.2905,-3.3012,-3.3006,-3.3139,-3.3114,-3.3092,-3.3154,-3.3202,-3.32,-3.3194,-3.3179,-3.318,-3.3181,-3.3181,-3.3182,-3.3183,-3.2933,-3.2961,-3.3075,-3.3156,-3.3213,-3.3286,-3.3318,-3.3374,-3.343,-3.3402,-3.3402,-3.3347,-3.3015,-3.2932,-3.3197,-3.3194,-3.3193,-3.3191,-3.319,-3.3316,-3.3225,-3.3401,-3.3459,-3.355,-3.3657,-3.3623,-3.3739,-3.3782,-3.3848,-3.3779,-3.3537,-3.3506,-3.3478,-3.341,-3.3783,-3.3783,-3.3783,-3.3783,-3.3527,-3.3508,-3.3682,-3.3775,-3.3864,-3.3851,-3.405,-3.4077,-3.4091,-3.4116,-3.4058,-3.3965,-3.3938,-3.3922,-3.3885,-3.3821,-3.429,-3.429,-3.4291,-3.3762,-3.375,-3.3925,-3.3935,-3.4005,-3.4065,-3.4252,-3.4362,-3.4359,-3.4311,-3.4135,-3.4114,-3.3962,-3.3914,-3.3863,-3.3806,-3.3686,0,0]},{"header":{"parameterUnit":"m.s-1","parameterCategory":1,"la1":30.2992,"la2":30.254,"lo1":-89.0895,"lo2":-89.0443,"dy":0.0025,"dx":0.0025,"nx":19,"ny":19,"refTime":"2026-03-13T03:00:00:Z","depth":0,"parameterNumber":3,"parameterNumberName":"V-component_of_WINDS"},"data":[0,0,0,-1.4588,-1.4587,-1.4584,-1.4585,-1.4562,-1.4561,0,0,0,0,0,0,0,0,0,0,0,-1.4579,-1.4579,-1.4588,-1.4587,-1.4584,-1.4585,-1.4562,-1.4561,0,0,0,0,0,0,0,0,0,0,0,-1.458,-1.4579,-1.4579,-1.4587,-1.4584,-1.4585,-1.4562,-1.457,0,0,0,0,0,0,0,0,0,0,-1.4576,-1.4561,-1.4579,-1.4579,-1.4587,-1.4584,-1.4585,-1.4571,-1.457,-1.4556,0,-1.4543,0,-1.4552,-1.4559,-1.4559,0,0,0,-1.4594,-1.4561,-1.4569,-1.4579,-1.4587,-1.4584,-1.4588,-1.457,-1.4569,-1.4554,-1.4543,-1.4542,-1.4551,-1.4559,-1.4558,-1.4459,-1.4458,0,0,-1.4594,-1.4574,-1.457,-1.4568,-1.457,-1.4588,-1.4587,-1.457,-1.4556,-1.4543,-1.4542,-1.4551,-1.4558,-1.4558,-1.446,-1.4459,0,0,0,-1.459,-1.4573,-1.4582,-1.4568,-1.4569,-1.4587,-1.4587,-1.4556,-1.4561,-1.4542,-1.4551,-1.4558,-1.4558,-1.446,-1.4459,-1.44,0,0,0,-1.459,-1.4571,-1.4582,-1.4569,-1.4569,-1.4563,-1.4574,-1.4562,-1.4561,-1.4551,-1.4558,-1.4557,-1.4461,-1.446,-1.4403,-1.4374,0,0,0,-1.4583,-1.4571,-1.4567,-1.4568,-1.4567,-1.4564,-1.4568,-1.4562,-1.4566,-1.4559,-1.4557,-1.4462,-1.446,-1.4406,-1.4379,-1.4338,0,0,0,-1.4568,-1.4516,-1.4566,-1.4511,-1.4566,-1.4529,-1.4568,-1.4541,-1.4529,-1.4558,-1.4461,-1.4459,-1.4407,-1.4382,-1.4341,-1.4297,-1.4278,0,0,-1.4491,-1.4506,-1.4476,-1.452,-1.4468,-1.4531,-1.447,-1.4477,-1.4495,-1.4469,-1.4467,-1.4402,-1.4379,-1.4339,-1.4186,-1.4171,0,0,0,-1.4444,-1.4421,-1.4412,-1.4399,-1.4404,-1.4404,-1.4423,-1.4425,-1.4404,-1.4479,-1.438,-1.4367,-1.4343,-1.4323,-1.431,-1.4288,-1.445,-1.4451,-1.4451,-1.4304,-1.4329,-1.4278,-1.4302,-1.4289,-1.4309,-1.4299,-1.4304,-1.4335,-1.4311,-1.4302,-1.4206,-1.4182,-1.4172,-1.415,-1.4285,-1.4284,-1.4284,-1.4284,-1.4189,-1.4158,-1.42,-1.4164,-1.419,-1.416,-1.4175,-1.4197,-1.4171,-1.4216,-1.4197,-1.424,-1.4154,-1.4136,-1.428,-1.428,-1.4281,-1.4281,-1.4282,-1.4096,-1.4085,-1.409,-1.4072,-1.4054,-1.4081,-1.4053,-1.4079,-1.4103,-1.4084,-1.4074,-1.4075,-1.4075,-1.4079,-1.4078,-1.4078,-1.4078,-1.4078,-1.4077,-1.3996,-1.4003,-1.3977,-1.3976,-1.3969,-1.3964,-1.3981,-1.3975,-1.3973,-1.3994,-1.3994,-1.4022,-1.4144,-1.417,-1.4072,-1.4073,-1.4074,-1.4074,-1.4075,-1.3862,-1.3896,-1.3855,-1.3848,-1.3848,-1.3826,-1.3861,-1.3843,-1.3842,-1.3826,-1.386,-1.3947,-1.3963,-1.3974,-1.3996,-1.3858,-1.3858,-1.3858,-1.3858,-1.3779,-1.3791,-1.3753,-1.374,-1.373,-1.3756,-1.3704,-1.3716,-1.3734,-1.3733,-1.3758,-1.3791,-1.3801,-1.3812,-1.3826,-1.3846,-1.3673,-1.3673,-1.3673,-1.3695,-1.3707,-1.3659,-1.3679,-1.368,-1.3678,-1.3629,-1.3609,-1.3637,-1.3666,-1.3732,-1.374,-1.3794,-1.3811,-1.3838,-1.3859,-1.3897,0,0]}]]